PROFILE

 METAR AND TAF INFORMATION
ADDS - METARS form results

(0440 UTC 28 November 2022)
http://aviationweather.gov/metar/data/
 
LFPG 280430Z 19006KT 6000 BKN003 BKN004 08/08 Q1011 NOSIG
LFPG 280400Z 19005KT 6000 BKN002 BKN003 08/08 Q1011 TEMPO BKN003
TAF AMD LFPG 280330Z 2803/2906 20008KT 8000 BKN010 TX10/2814Z TN03/2905Z TEMPO 2803/2809 BKN003 PROB40 TEMPO 2803/2809 BKN002 BECMG 2809/2812 BKN012 BECMG 2812/2815 BKN020 PROB40 TEMPO 2812/2818 SCT015TCU BECMG 2819/2821 VRB02KT BECMG 2821/2823 2000 BR BKN004 PROB40 TEMPO 2903/2906 0800 BCFG BKN002 

 AIRPORT MAP

 RUNWAY INFORMATION
Runway 08R Runway length 8858 ft Runway width 197 ft
Runway elevation 336 ft Runway displaced threshold 0 ft Runway heading 85
Runway 26L Runway length 8858 ft Runway width 197 ft
Runway elevation 316 ft Runway displaced threshold 0 ft Runway heading 265
Runway 08L Runway length 13829 ft Runway width 148 ft
Runway elevation 338 ft Runway displaced threshold 0 ft Runway heading 85
Runway 26R Runway length 13829 ft Runway width 148 ft
Runway elevation 318 ft Runway displaced threshold 1969 ft Runway heading 265
Runway 09R Runway length 13780 ft Runway width 148 ft
Runway elevation 370 ft Runway displaced threshold 0 ft Runway heading 86
Runway 27L Runway length 13780 ft Runway width 148 ft
Runway elevation 387 ft Runway displaced threshold 1969 ft Runway heading 266
Runway 09L Runway length 8858 ft Runway width 197 ft
Runway elevation 378 ft Runway displaced threshold 0 ft Runway heading 85
Runway 27R Runway length 8858 ft Runway width 197 ft
Runway elevation 392 ft Runway displaced threshold 0 ft Runway heading 265

 AIRPORT FREQUENCIES
Type APP Name DE GAULLE Frequency 121.15 MHZ
Type APP Name DE GAULLE Frequency 136.275 MHZ
Type ATIS Name DE GAULLE Frequency 127.125 MHZ
Type DEP Name DE GAULLE Frequency 124.35 MHZ
Type GND Name DE GAULLE Frequency 121.6 MHZ
Type GND Name DE GAULLE Frequency 118.1 MHZ
Type PFLT Name DE GAULLE Frequency 126.65 MHZ
Type TWR Name DE GAULLE Frequency 119.25 MHZ
Type TWR Name DE GAULLE Frequency 120.65 MHZ

 AIRPORT NEAR NAVIGATION AIDS
Type VOR-DME Name Charles de Gaulle Frequency 115350 KHZ
Type VOR-DME Name Charles de Gaulle Frequency 117050 KHZ